SMOS

Satellite information

Favourite Embed

Satellite Type and Status

PAYLOADIN ORBIT

Key statistics

Satellite SMOS at a glance.

Uptime

5784

Days in orbit

Revolutions

≈ 14.4

Per day

Orbit

SSO

Sun Synchronous Orbit

Inclination

98.4

Latest

Satellite identification and parameters

Extended collection of information and parameters for SMOS.

Object identification

Identified? True

Debris? False

Object name: SMOS

International designator: 2009-059A

Object number (NORAD): 36036

Object ID (CCSDS): 36036

Country: EUROPEAN SPACE AGENCY (ESA)

Current information (Y/N): Y

RCS size: LARGE

Orbital parameters

Period: 100.018 minutes

Inclination: 98.4438 deg

SMA: 7137.504 km

Apoapsis: 760.202 km

Periapsis: 758.536 km

RAAN: 72.062 deg

Eccentricy: 0.00011671

Argument of periapsis: 87.9898 deg

Mean anomaly: 272.1424 deg

Mean motion: 14.39737212 rev/day

Mean motion (dot): 0.00000685 rev/day2

B* drag term: 0.00023268731 1/REarth

Two-line elements (TLE)

Creation date: Sept. 2, 2025, 11:42 p.m.

Reference frame: TEME

Reference center: EARTH

Epoch: Sept. 2, 2025, 1:04 p.m. UTC

TLE line 0: 0 SMOS

TLE line 1: 1 36036U 09059A 25245.54449601 .00000685 00000-0 23269-3 0 9996

TLE line 2: 2 36036 98.4438 72.0620 0001167 87.9898 272.1424 14.39737212832067

Live tracking on map

Real-time ground track for satellite SMOS.

In-orbit conjunctions

There are no conjunctions computed for SMOS, at the moment. Check back to stay up to date, as we update our databases every day.

Go to all conjunctions

Associated space launch

SMOS (Soil Moisture and Ocean Salinity) is a earth observation satellite operated by ESA. It is intented to provide new insights into Earth's water cycle and climate.

SMOS was lifted into orbit during the mission ‘Rokot / Briz-KM | SMOS’, on board a Rokot/Briz-KM space rocket.

The launch took place on Nov. 2, 2009, 1:50 a.m. from 133/3 (133L).

For more information about the launch, click the button.

Launch to space Rokot / Briz-KM | SMOS
Rokot / Briz-KM | SMOS

Agency: N/A

Status: Launch Successful

Launch date: Nov. 2, 2009, 1:50 a.m. UTC

Rocket: Rokot/Briz-KM

Launch pad: 133/3 (133L)

Location: Plesetsk Cosmodrome, Russian Federation

...

Latest news about this satellite

News about space launch
SMOS adds long-term view on carbon stored in forests

Data from ESA’s Soil Moisture and Ocean Salinity (SMOS) mission can be used to estimate how much carbon is stored in forests – and a study has improved our understanding of how reliable this proxy is and how long-term datasets from SMOS can help us to mon...

News about space launch
Proba-2’s glimpse of home

Proba-2’s glimpse of home


Newsletter sign-up

Weekly statistics, charts and insights to help you stay on top of the space industry.